DECAYED

NOAA 16 DEB, 42430 (Decayed)

Orbit data source: Space-Track

NOAA 16 DEB, 42430 was space debris in SSO originally from a launch on Thu, 21 Sep 2000 UTC launched from the Air Force Western Test Range (AFWTR). Debris objects in space refer to the collection of defunct objects orbiting the Earth. Examples of debris include non-operational satellites, rocket bodies, and fragments generated from explosions, collisions, or faulty payload assembly.

Not visible in the next 10 days
Identifier
42430, 2000-055UA
Orbit
Decayed
Country
Flag of USUS
Related business
Manufacturer
Unknown
Mission
Decayed spacecraft
Bus & Motor
Unknown
Mass
Unknown
Launch date (UTC)
2000-09-21 (25 years ago)
Launch vehicle
Unknown
Launch site
Air Force Western Test Range (AFWTR)
Object type
Payload
Rocket body
Debris
Shape & HBR
Unknown shape, 0.1 m
Radar Cross Section
Small (<0.1 m²)

Expand to show TLE details & history
Last TLE update: 11 months ago

TLE from 11 months ago
0 NOAA 16 DEB
1 42430U 00055UA  25065.37298980  .01578547  00000-0  30878-1 0  9991
2 42430  98.8355 214.4401 0033821 306.2087  53.6030 15.43826445443125
Epoch: 2025-03-06T08:57Z
TLE epoch observation values (Epoch: 2025-03-06T08:57:06.318Z)
Latitude
-0.0001°
Longitude
-84.18484°
Altitude
424.281 km
Speed
7.664 km/s
True Right ascension
14h 17m 45s
True Declination
0° 00' 00"
Sunlit
Object was in full shadow at epoch
Visualization orbit readout
Latitude
Unknown
Longitude
Unknown
Altitude
Unknown
Speed
Unknown
Apparent Right ascension
Unknown
Apparent Declination
Unknown
Sunlit
N/A
Visualization observer readout
Local Sidereal Time
17:45:40
Azimuth
Unknown
Elevation
Unknown
Doppler factor
Unknown
Orbital elements
Apogee altitude
454.862 km
Perigee altitude
408.798 km
Semi-major axis
6,809.967 km
Eccentricity
0.00338
Inclination
98.8355°
RAAN
214.4401°
Arg. of periapsis
306.2087°
True anomaly
53.91574°
Mean anomaly
53.603°
Eccentric anomaly
53.75929°
Mean motion
3.86212 °/min
Orbital period
93.21 mins
BSTAR
0.030878
Loading maneuver chart data...
Computing Atmospheric mass density...

Documentation

Showing up to 5 results
|